Time,TemperatureF,DewpointF,PressureIn,WindDirection,WindDirectionDegrees,WindSpeedMPH,WindSpeedGustMPH,Humidity,HourlyPrecipIn,Conditions,Clouds,dailyrainin,SolarRadiationWatts/m^2,SoftwareType,DateUTC
2013-03-19 00:02:00,46.0,37.0,-100.00,SE,144,0.0,3.0,72,-99.99,,,0.00,0.000000,,2013-03-19 07:02:00,
2013-03-19 00:42:00,49.0,26.0,-100.00,East,80,3.0,7.0,40,-99.99,,,0.00,0.000000,,2013-03-19 07:42:00,
2013-03-19 00:52:00,49.0,26.0,-100.00,East,80,3.0,7.0,40,-99.99,,,0.00,0.000000,,2013-03-19 07:52:00,
2013-03-19 01:02:00,49.0,26.0,-100.00,East,80,3.0,7.0,40,-99.99,,,0.00,0.000000,,2013-03-19 08:02:00,
2013-03-19 01:32:00,49.0,23.0,-100.00,WSW,240,1.0,7.0,35,0.00,,,0.00,0.000000,,2013-03-19 08:32:00,
2013-03-19 02:11:00,49.0,20.0,-100.00,NW,310,1.0,5.0,31,0.00,,,0.00,0.000000,,2013-03-19 09:11:00,
2013-03-19 02:43:00,49.0,20.0,-100.00,NW,310,1.0,5.0,31,0.00,,,0.00,0.000000,,2013-03-19 09:43:00,
2013-03-19 02:53:00,49.0,20.0,-100.00,NW,310,1.0,5.0,31,0.00,,,0.00,0.000000,,2013-03-19 09:53:00,
2013-03-19 03:03:00,49.0,20.0,-100.00,NW,310,1.0,5.0,31,0.00,,,0.00,0.000000,,2013-03-19 10:03:00,
2013-03-19 03:11:00,51.0,21.0,-100.00,ENE,72,4.0,9.0,31,0.00,,,0.00,0.000000,,2013-03-19 10:11:00,
2013-03-19 03:33:00,51.0,21.0,-100.00,ENE,72,4.0,9.0,31,0.00,,,0.00,0.000000,,2013-03-19 10:33:00,
2013-03-19 04:02:00,51.0,21.0,-100.00,ENE,72,4.0,9.0,31,0.00,,,0.00,0.000000,,2013-03-19 11:02:00,
2013-03-19 04:11:00,49.0,27.0,-100.00,ESE,120,5.0,9.0,43,0.00,,,0.00,0.000000,,2013-03-19 11:11:00,
2013-03-19 04:33:00,49.0,27.0,-100.00,ESE,120,5.0,9.0,43,0.00,,,0.00,0.000000,,2013-03-19 11:33:00,
2013-03-19 05:02:00,49.0,27.0,-100.00,ESE,120,5.0,9.0,43,0.00,,,0.00,0.000000,,2013-03-19 12:02:00,
2013-03-19 06:11:00,54.0,33.0,-100.00,East,80,6.0,10.0,45,-99.99,,,0.00,0.000000,,2013-03-19 13:11:00,
2013-03-19 06:33:00,54.0,33.0,-100.00,East,80,6.0,10.0,45,-99.99,,,0.00,0.000000,,2013-03-19 13:33:00,
2013-03-19 06:42:00,54.0,33.0,-100.00,East,80,6.0,10.0,45,-99.99,,,0.00,0.000000,,2013-03-19 13:42:00,
2013-03-19 06:52:00,54.0,33.0,-100.00,East,80,6.0,10.0,45,-99.99,,,0.00,0.000000,,2013-03-19 13:52:00,
2013-03-19 07:02:00,54.0,33.0,-100.00,East,80,6.0,10.0,45,-99.99,,,0.00,0.000000,,2013-03-19 14:02:00,
2013-03-19 07:11:00,55.0,35.0,-100.00,East,92,7.0,12.0,46,0.00,,,0.00,0.000000,,2013-03-19 14:11:00,
2013-03-19 07:42:00,55.0,35.0,-100.00,East,92,7.0,12.0,46,0.00,,,0.00,0.000000,,2013-03-19 14:42:00,
2013-03-19 07:52:00,55.0,35.0,-100.00,East,92,7.0,12.0,46,0.00,,,0.00,0.000000,,2013-03-19 14:52:00,
2013-03-19 08:02:00,55.0,35.0,-100.00,East,92,7.0,12.0,46,0.00,,,0.00,0.000000,,2013-03-19 15:02:00,
2013-03-19 08:11:00,55.0,38.0,-100.00,East,93,5.0,11.0,52,0.00,,,0.00,36.000000,,2013-03-19 15:11:00,
2013-03-19 08:44:00,55.0,38.0,-100.00,East,93,5.0,11.0,52,0.00,,,0.00,36.000000,,2013-03-19 15:44:00,
2013-03-19 08:53:00,55.0,38.0,-100.00,East,93,5.0,11.0,52,0.00,,,0.00,36.000000,,2013-03-19 15:53:00,
2013-03-19 09:03:00,55.0,38.0,-100.00,East,93,5.0,11.0,52,0.00,,,0.00,36.000000,,2013-03-19 16:03:00,
2013-03-19 09:11:00,60.0,43.0,-100.00,ESE,113,3.0,9.0,54,0.00,,,0.00,151.000000,,2013-03-19 16:11:00,
2013-03-19 09:44:00,60.0,43.0,-100.00,ESE,113,3.0,9.0,54,0.00,,,0.00,151.000000,,2013-03-19 16:44:00,
2013-03-19 09:54:00,60.0,43.0,-100.00,ESE,113,3.0,9.0,54,0.00,,,0.00,151.000000,,2013-03-19 16:54:00,
2013-03-19 10:02:00,60.0,43.0,-100.00,ESE,113,3.0,9.0,54,0.00,,,0.00,151.000000,,2013-03-19 17:02:00,
2013-03-19 10:11:00,68.0,39.0,-100.00,WNW,302,4.0,7.0,35,0.00,,,0.00,413.000000,,2013-03-19 17:11:00,
2013-03-19 10:44:00,68.0,39.0,-100.00,WNW,302,4.0,7.0,35,0.00,,,0.00,413.000000,,2013-03-19 17:44:00,
2013-03-19 10:53:00,68.0,39.0,-100.00,WNW,302,4.0,7.0,35,0.00,,,0.00,413.000000,,2013-03-19 17:53:00,
2013-03-19 11:11:00,69.0,40.0,-100.00,NW,312,7.0,9.0,35,0.00,,,0.00,589.000000,,2013-03-19 18:11:00,
2013-03-19 11:43:00,69.0,40.0,-100.00,NW,312,7.0,9.0,35,0.00,,,0.00,589.000000,,2013-03-19 18:43:00,
2013-03-19 11:53:00,69.0,40.0,-100.00,NW,312,7.0,9.0,35,0.00,,,0.00,589.000000,,2013-03-19 18:53:00,
2013-03-19 12:02:00,69.0,40.0,-100.00,NW,312,7.0,9.0,35,0.00,,,0.00,589.000000,,2013-03-19 19:02:00,
2013-03-19 12:11:00,70.0,40.0,-100.00,WNW,285,8.0,14.0,34,0.00,,,-99.99,700.000000,,2013-03-19 19:11:00,
2013-03-19 12:33:00,70.0,40.0,-100.00,WNW,285,8.0,14.0,34,0.00,,,-99.99,700.000000,,2013-03-19 19:33:00,
2013-03-19 12:43:00,70.0,40.0,-100.00,WNW,285,8.0,14.0,34,0.00,,,-99.99,700.000000,,2013-03-19 19:43:00,
2013-03-19 12:53:00,70.0,40.0,-100.00,WNW,285,8.0,14.0,34,0.00,,,-99.99,700.000000,,2013-03-19 19:53:00,
2013-03-19 13:02:00,70.0,40.0,-100.00,WNW,285,8.0,14.0,34,0.00,,,-99.99,700.000000,,2013-03-19 20:02:00,
2013-03-19 13:11:00,72.0,41.0,-100.00,WNW,298,9.0,15.0,32,0.00,,,0.00,753.000000,,2013-03-19 20:11:00,
2013-03-19 13:43:00,72.0,41.0,-100.00,WNW,298,9.0,15.0,32,0.00,,,0.00,753.000000,,2013-03-19 20:43:00,
2013-03-19 13:52:00,72.0,41.0,-100.00,WNW,298,9.0,15.0,32,0.00,,,0.00,753.000000,,2013-03-19 20:52:00,
2013-03-19 14:02:00,72.0,41.0,-100.00,WNW,298,9.0,15.0,32,0.00,,,0.00,753.000000,,2013-03-19 21:02:00,
2013-03-19 14:11:00,70.0,42.0,-100.00,NW,307,14.0,21.0,36,0.00,,,0.00,785.000000,,2013-03-19 21:11:00,
2013-03-19 14:43:00,70.0,42.0,-100.00,NW,307,14.0,21.0,36,0.00,,,0.00,785.000000,,2013-03-19 21:43:00,
2013-03-19 14:53:00,70.0,42.0,-100.00,NW,307,14.0,21.0,36,0.00,,,0.00,785.000000,,2013-03-19 21:53:00,
2013-03-19 15:03:00,70.0,42.0,-100.00,NW,307,14.0,21.0,36,0.00,,,0.00,785.000000,,2013-03-19 22:03:00,
2013-03-19 15:11:00,69.0,40.0,-100.00,NW,326,10.0,17.0,35,0.00,,,0.00,589.000000,,2013-03-19 22:11:00,
2013-03-19 15:34:00,69.0,40.0,-100.00,NW,326,10.0,17.0,35,0.00,,,0.00,589.000000,,2013-03-19 22:34:00,
2013-03-19 15:43:00,69.0,40.0,-100.00,NW,326,10.0,17.0,35,0.00,,,0.00,589.000000,,2013-03-19 22:43:00,
2013-03-19 15:53:00,69.0,40.0,-100.00,NW,326,10.0,17.0,35,0.00,,,0.00,589.000000,,2013-03-19 22:53:00,
2013-03-19 16:02:00,69.0,40.0,-100.00,NW,326,10.0,17.0,35,0.00,,,0.00,589.000000,,2013-03-19 23:02:00,
2013-03-19 16:11:00,64.0,39.0,-100.00,NW,311,13.0,21.0,40,0.00,,,0.00,436.000000,,2013-03-19 23:11:00,
2013-03-19 16:33:00,64.0,39.0,-100.00,NW,311,13.0,21.0,40,0.00,,,0.00,436.000000,,2013-03-19 23:33:00,
2013-03-19 16:43:00,64.0,39.0,-100.00,NW,311,13.0,21.0,40,0.00,,,0.00,436.000000,,2013-03-19 23:43:00,
2013-03-19 16:52:00,64.0,39.0,-100.00,NW,311,13.0,21.0,40,0.00,,,0.00,436.000000,,2013-03-19 23:52:00,
2013-03-19 17:02:00,64.0,39.0,-100.00,NW,311,13.0,21.0,40,0.00,,,0.00,436.000000,,2013-03-20 00:02:00,
2013-03-19 17:11:00,61.0,40.0,-100.00,WNW,299,9.0,19.0,45,0.00,,,-99.99,205.000000,,2013-03-20 00:11:00,
2013-03-19 17:33:00,61.0,40.0,-100.00,WNW,299,9.0,19.0,45,0.00,,,-99.99,205.000000,,2013-03-20 00:33:00,
2013-03-19 17:42:00,61.0,40.0,-100.00,WNW,299,9.0,19.0,45,0.00,,,-99.99,205.000000,,2013-03-20 00:42:00,
2013-03-19 17:52:00,61.0,40.0,-100.00,WNW,299,9.0,19.0,45,0.00,,,-99.99,205.000000,,2013-03-20 00:52:00,
2013-03-19 18:02:00,61.0,40.0,-100.00,WNW,299,9.0,19.0,45,0.00,,,-99.99,205.000000,,2013-03-20 01:02:00,
2013-03-19 18:11:00,55.0,37.0,-100.00,NW,306,8.0,18.0,50,0.00,,,0.00,78.000000,,2013-03-20 01:11:00,
2013-03-19 18:32:00,55.0,37.0,-100.00,NW,306,8.0,18.0,50,0.00,,,0.00,78.000000,,2013-03-20 01:32:00,
2013-03-19 18:43:00,55.0,37.0,-100.00,NW,306,8.0,18.0,50,0.00,,,0.00,78.000000,,2013-03-20 01:43:00,
2013-03-19 18:52:00,55.0,37.0,-100.00,NW,306,8.0,18.0,50,0.00,,,0.00,78.000000,,2013-03-20 01:52:00,
2013-03-19 19:02:00,55.0,37.0,-100.00,NW,306,8.0,18.0,50,0.00,,,0.00,78.000000,,2013-03-20 02:02:00,
2013-03-19 19:11:00,51.0,36.0,-100.00,WNW,283,7.0,16.0,57,0.00,,,0.00,23.000000,,2013-03-20 02:11:00,
2013-03-19 19:32:00,51.0,36.0,-100.00,WNW,283,7.0,16.0,57,0.00,,,0.00,23.000000,,2013-03-20 02:32:00,
2013-03-19 19:43:00,51.0,36.0,-100.00,WNW,283,7.0,16.0,57,0.00,,,0.00,23.000000,,2013-03-20 02:43:00,
2013-03-19 19:53:00,51.0,36.0,-100.00,WNW,283,7.0,16.0,57,0.00,,,0.00,23.000000,,2013-03-20 02:53:00,
2013-03-19 20:01:00,51.0,36.0,-100.00,WNW,283,7.0,16.0,57,0.00,,,0.00,23.000000,,2013-03-20 03:01:00,
2013-03-19 20:11:00,48.0,40.0,-100.00,East,99,7.0,10.0,75,0.03,,,0.03,0.000000,,2013-03-20 03:11:00,
2013-03-19 20:34:00,48.0,40.0,-100.00,East,99,7.0,10.0,75,0.03,,,0.03,0.000000,,2013-03-20 03:34:00,
2013-03-19 20:43:00,48.0,40.0,-100.00,East,99,7.0,10.0,75,0.03,,,0.03,0.000000,,2013-03-20 03:43:00,
2013-03-19 20:53:00,48.0,40.0,-100.00,East,99,7.0,10.0,75,0.03,,,0.03,0.000000,,2013-03-20 03:53:00,
2013-03-19 21:02:00,48.0,40.0,-100.00,East,99,7.0,10.0,75,0.03,,,0.03,0.000000,,2013-03-20 04:02:00,
2013-03-19 21:11:00,51.0,46.0,-100.00,ESE,115,4.0,19.0,84,0.01,,,-99.99,0.000000,,2013-03-20 04:11:00,
2013-03-19 21:32:00,51.0,46.0,-100.00,ESE,115,4.0,19.0,84,0.01,,,-99.99,0.000000,,2013-03-20 04:32:00,
2013-03-19 21:43:00,51.0,46.0,-100.00,ESE,115,4.0,19.0,84,0.01,,,-99.99,0.000000,,2013-03-20 04:43:00,
2013-03-19 21:52:00,51.0,46.0,-100.00,ESE,115,4.0,19.0,84,0.01,,,-99.99,0.000000,,2013-03-20 04:52:00,
2013-03-19 22:11:00,52.0,47.0,-100.00,SE,129,8.0,11.0,82,0.00,,,0.04,0.000000,,2013-03-20 05:11:00,
2013-03-19 22:33:00,52.0,47.0,-100.00,SE,129,8.0,11.0,82,0.00,,,0.04,0.000000,,2013-03-20 05:33:00,
2013-03-19 22:43:00,52.0,47.0,-100.00,SE,129,8.0,11.0,82,0.00,,,0.04,0.000000,,2013-03-20 05:43:00,
2013-03-19 22:53:00,52.0,47.0,-100.00,SE,129,8.0,11.0,82,0.00,,,0.04,0.000000,,2013-03-20 05:53:00,
2013-03-19 23:02:00,52.0,47.0,-100.00,SE,129,8.0,11.0,82,0.00,,,0.04,0.000000,,2013-03-20 06:02:00,
2013-03-19 23:11:00,53.0,47.0,-100.00,East,99,9.0,17.0,80,0.00,,,0.04,0.000000,,2013-03-20 06:11:00,
2013-03-19 23:43:00,53.0,47.0,-100.00,East,99,9.0,17.0,80,0.00,,,0.04,0.000000,,2013-03-20 06:43:00,
2013-03-19 23:52:00,53.0,47.0,-100.00,East,99,9.0,17.0,80,0.00,,,0.04,0.000000,,2013-03-20 06:52:00,